TimeEDT,TemperatureF,Dew PointF,Humidity,Sea Level PressureIn,VisibilityMPH,Wind Direction,Wind SpeedMPH,Gust SpeedMPH,PrecipitationIn,Events,Conditions,WindDirDegrees,DateUTC
12:32 AM,69.8,69.8,100,30.04,1.8,Calm,Calm,-,N/A,,Clear,0,2013-07-29 04:32:00
12:41 AM,69.8,69.8,100,30.03,2.5,Calm,Calm,-,N/A,,Clear,0,2013-07-29 04:41:00
12:51 AM,69.8,69.8,100,30.03,0.8,Calm,Calm,-,N/A,,Mist,0,2013-07-29 04:51:00
12:54 AM,70.0,69.1,97,30.01,0.5,Calm,Calm,-,N/A,Fog,Fog,0,2013-07-29 04:54:00
1:34 AM,69.8,68.0,94,30.03,0.2,Calm,Calm,-,N/A,Fog,Fog,0,2013-07-29 05:34:00
1:46 AM,69.8,69.8,100,30.03,1.0,Calm,Calm,-,N/A,,Mist,0,2013-07-29 05:46:00
1:54 AM,68.0,68.0,100,30.01,1.0,Calm,Calm,-,N/A,,Mist,0,2013-07-29 05:54:00
2:06 AM,69.8,68.0,94,30.03,0.5,Calm,Calm,-,N/A,Fog,Fog,0,2013-07-29 06:06:00
2:13 AM,69.8,68.0,94,30.03,0.2,Calm,Calm,-,N/A,Fog,Fog,0,2013-07-29 06:13:00
2:20 AM,69.8,69.8,100,30.03,1.0,Calm,Calm,-,N/A,,Mist,0,2013-07-29 06:20:00
2:22 AM,69.8,68.0,94,30.03,2.0,Calm,Calm,-,N/A,,Scattered Clouds,0,2013-07-29 06:22:00
2:28 AM,68.0,66.2,94,30.03,1.0,Calm,Calm,-,N/A,,Mist,0,2013-07-29 06:28:00
2:35 AM,68.0,66.2,94,30.03,0.2,Calm,Calm,-,N/A,Fog,Fog,0,2013-07-29 06:35:00
2:54 AM,68.0,66.9,96,30.01,1.0,Calm,Calm,-,N/A,,Mist,0,2013-07-29 06:54:00
3:06 AM,68.0,66.2,94,30.03,0.5,Calm,Calm,-,N/A,Fog,Fog,0,2013-07-29 07:06:00
3:37 AM,69.8,69.8,100,30.03,1.5,North,3.5,-,N/A,,Mostly Cloudy,10,2013-07-29 07:37:00
3:51 AM,69.8,69.8,100,30.03,0.5,North,3.5,-,N/A,Fog,Fog,350,2013-07-29 07:51:00
3:54 AM,69.1,69.1,100,30.01,0.2,North,3.5,-,N/A,Fog,Fog,350,2013-07-29 07:54:00
4:07 AM,69.8,69.8,100,30.03,1.0,North,3.5,-,N/A,,Mist,10,2013-07-29 08:07:00
4:18 AM,69.8,68.0,94,30.04,3.0,Calm,Calm,-,N/A,,Mist,0,2013-07-29 08:18:00
4:54 AM,69.1,69.1,100,30.03,7.0,Calm,Calm,-,N/A,,Clear,0,2013-07-29 08:54:00
5:54 AM,69.1,68.0,96,30.05,6.0,North,3.5,-,N/A,,Clear,360,2013-07-29 09:54:00
6:54 AM,68.0,66.9,96,30.07,4.0,Calm,Calm,-,N/A,,Clear,0,2013-07-29 10:54:00
7:54 AM,71.1,69.1,93,30.09,7.0,NNE,4.6,-,N/A,,Mostly Cloudy,20,2013-07-29 11:54:00
8:54 AM,75.0,66.0,73,30.10,10.0,NNE,6.9,-,N/A,,Clear,20,2013-07-29 12:54:00
9:54 AM,77.0,64.0,64,30.10,10.0,NE,9.2,-,N/A,,Clear,50,2013-07-29 13:54:00
10:54 AM,78.1,64.0,62,30.11,10.0,NE,8.1,-,N/A,,Clear,40,2013-07-29 14:54:00
11:54 AM,82.0,66.0,58,30.12,10.0,East,5.8,-,N/A,,Clear,90,2013-07-29 15:54:00
12:54 PM,82.9,64.9,54,30.12,10.0,Variable,3.5,-,N/A,,Partly Cloudy,0,2013-07-29 16:54:00
1:54 PM,82.9,64.9,54,30.11,10.0,Calm,Calm,-,N/A,,Partly Cloudy,0,2013-07-29 17:54:00
2:54 PM,82.9,64.0,53,30.09,10.0,Calm,Calm,-,N/A,,Scattered Clouds,0,2013-07-29 18:54:00
3:54 PM,86.0,64.9,49,30.07,10.0,Calm,Calm,-,N/A,,Partly Cloudy,0,2013-07-29 19:54:00
4:54 PM,86.0,66.9,53,30.08,10.0,North,4.6,-,N/A,,Clear,10,2013-07-29 20:54:00
5:54 PM,82.9,66.9,58,30.09,10.0,North,4.6,-,N/A,,Clear,360,2013-07-29 21:54:00
6:54 PM,84.0,66.0,55,30.08,10.0,Calm,Calm,-,N/A,,Clear,0,2013-07-29 22:54:00
7:54 PM,80.1,69.1,69,30.10,10.0,Calm,Calm,-,N/A,,Clear,0,2013-07-29 23:54:00
8:54 PM,73.0,70.0,90,30.13,10.0,Calm,Calm,-,N/A,,Clear,0,2013-07-30 00:54:00
9:54 PM,75.9,69.1,79,30.15,10.0,Calm,Calm,-,N/A,,Clear,0,2013-07-30 01:54:00
10:54 PM,72.0,69.1,91,30.16,9.0,Calm,Calm,-,N/A,,Clear,0,2013-07-30 02:54:00
11:54 PM,70.0,69.1,97,30.16,5.0,Calm,Calm,-,N/A,,Clear,0,2013-07-30 03:54:00